{"data":{"norad_id":47650,"epoch":"2026-05-25T04:06:35.872128Z","epoch_age_seconds":54074,"freshness":"FRESH","line1":"1 47650U 21012AG  26145.17124852  .00051904  00000+0  13306-2 0  9999","line2":"2 47650  53.1509  51.5094 0005781  86.4895 273.6770 15.38865064292036","mean_motion":15.38865064,"eccentricity":0.0005781,"inclination_deg":53.1509,"raan_deg":51.5094,"arg_perigee_deg":86.4895,"mean_anomaly_deg":273.677,"bstar":0.0013306,"rev_number":29203,"period_min":93.57545594394,"perigee_km":445.51719189352,"apogee_km":453.41126443352,"semimajor_km":6827.6012281635,"source":"CELESTRAK","updated_at":"2026-05-25T13:38:16.562044Z"}}